Weather History for Poughkeepsie, NY

Change the Weather History Date:

Tuesday, November 20, 2012

  Actual Average Record
Temperature  
Mean Temperature 36 °F 40 °F  
Max Temperature 47 °F 51 °F 72 °F (1985)
Min Temperature 24 °F 30 °F 11 °F (1986)
Degree Days  
Heating Degree Days 29 25  
Month to date heating degree days 457 435  
Since 1 July heating degree days 866 1011  
Cooling Degree Days 0 0  
Month to date cooling degree days 0 0  
Year to date cooling degree days 895 672  
Moisture  
Dew Point 26 °F    
Average Humidity 71    
Maximum Humidity 92    
Minimum Humidity 49    
Precipitation  
Precipitation 0.00 in 0.12 in 2.88 in (1988)
Month to date precipitation 0.52 2.28  
Year to date precipitation 32.09 41.81  
Sea Level Pressure  
Sea Level Pressure 30.18 in    
Wind  
Wind Speed 0 mph (North)    
Max Wind Speed 5 mph    
Max Gust Speed 6 mph    
Visibility 10 miles    
Events Rain    
T = Trace of Precipitation, MM = Missing Value Source: NWS Daily Summary

Daily Weather History Graph

Daily Weather History Graph

Search for Another Location

Airport:

Trip Planner

Search our weather history database for the weather conditions in past years. The results will help you decide how hot, cold, wet, or windy it might be!

Date:

Astronomy

Nov. 20, 2012 Rise Set
Actual Time 6:51 AM EST 4:31 PM EST
Civil Twilight 6:20 AM EST 5:01 PM EST
Nautical Twilight 5:46 AM EST 5:35 PM EST
Astronomical Twilight 5:13 AM EST 6:08 PM EST
Moon 12:21 PM EST (11/20) No Moon Set
Length of Visible Light 10h 40m
Length of Day
9h 40m
Waxing Crescent, 51% of the Moon is Illuminated
Nov 20
Waxing Crescent
Nov 28
Full
Dec 6
Last Quarter
Dec 13
New
Dec 20
First Quarter

Hourly Weather History & Observations

Time (EST) Temp. Dew Point Humidity Pressure Visibility Wind Dir Wind Speed Gust Speed Precip Events Conditions
12:53 AM 25.0 °F 21.0 °F 85% 30.25 in 9.0 mi Calm Calm - N/A   Clear
1:53 AM 25.0 °F 21.0 °F 85% 30.24 in 9.0 mi Calm Calm - N/A   Clear
2:53 AM 25.0 °F 21.9 °F 88% 30.23 in 7.0 mi Calm Calm - N/A   Clear
3:53 AM 24.1 °F 21.0 °F 88% 30.22 in 9.0 mi Calm Calm - N/A   Clear
4:53 AM 25.0 °F 21.0 °F 85% 30.22 in 9.0 mi Calm Calm - N/A   Clear
5:53 AM 25.0 °F 21.9 °F 88% 30.22 in 10.0 mi Calm Calm - N/A   Clear
6:53 AM 24.1 °F 19.9 °F 84% 30.22 in 8.0 mi Calm Calm - N/A   Clear
7:53 AM 25.0 °F 21.9 °F 88% 30.22 in 10.0 mi Calm Calm - N/A   Clear
8:53 AM 30.9 °F 26.1 °F 82% 30.22 in 8.0 mi Calm Calm - N/A   Clear
9:53 AM 35.1 °F 28.0 °F 76% 30.21 in 10.0 mi Calm Calm - N/A   Clear
10:53 AM 39.9 °F 28.0 °F 63% 30.19 in 10.0 mi Calm Calm - N/A   Clear
11:53 AM 41.0 °F 28.9 °F 62% 30.17 in 10.0 mi Calm Calm - N/A   Clear
12:53 PM 44.1 °F 28.9 °F 55% 30.14 in 10.0 mi Calm Calm - 0.00 in Rain Light Rain
12:56 PM 44.6 °F 28.4 °F 53% 30.15 in 10.0 mi Calm Calm - 0.00 in   Clear
1:53 PM 46.9 °F 28.9 °F 50% 30.13 in 10.0 mi Calm Calm - 0.00 in   Clear
2:53 PM 46.9 °F 28.9 °F 50% 30.12 in 10.0 mi Calm Calm - N/A   Clear
3:53 PM 46.0 °F 28.9 °F 51% 30.13 in 10.0 mi Calm Calm - N/A   Clear
4:53 PM 42.1 °F 30.0 °F 62% 30.12 in 10.0 mi Calm Calm - N/A   Clear
5:53 PM 37.9 °F 28.9 °F 70% 30.14 in 10.0 mi Calm Calm - N/A   Clear
6:53 PM 34.0 °F 28.0 °F 79% 30.15 in 10.0 mi Calm Calm - N/A   Clear
7:53 PM 32.0 °F 26.1 °F 79% 30.15 in 10.0 mi Calm Calm - N/A   Clear
8:53 PM 30.9 °F 27.0 °F 85% 30.15 in 10.0 mi Calm Calm - N/A   Clear
9:53 PM 30.0 °F 26.1 °F 85% 30.15 in 9.0 mi Calm Calm - N/A   Clear
10:53 PM 28.9 °F 25.0 °F 85% 30.16 in 9.0 mi Calm Calm - N/A   Clear
11:53 PM 28.0 °F 25.0 °F 88% 30.17 in 10.0 mi Calm Calm - N/A   Clear